TimeEST,TemperatureF,Dew PointF,Humidity,Sea Level PressureIn,VisibilityMPH,Wind Direction,Wind SpeedMPH,Gust SpeedMPH,PrecipitationIn,Events,Conditions,WindDirDegrees,DateUTC
12:21 AM,21.2,19.4,93,29.60,1.5,Calm,Calm,-,0.01,Snow,Light Snow,0,2012-12-30 05:21:00
12:43 AM,21.2,19.4,93,29.60,2.5,East,3.5,-,0.01,Snow,Light Snow,90,2012-12-30 05:43:00
12:53 AM,21.9,19.9,92,29.63,3.0,Calm,Calm,-,0.01,Snow,Light Snow,0,2012-12-30 05:53:00
1:53 AM,21.0,18.0,88,29.66,3.0,ENE,4.6,-,0.00,Snow,Light Snow,70,2012-12-30 06:53:00
2:30 AM,19.4,17.6,93,29.64,2.0,NE,4.6,-,0.00,Snow,Light Snow,50,2012-12-30 07:30:00
2:37 AM,19.4,17.6,93,29.64,1.8,ENE,4.6,-,0.00,Snow,Light Snow,60,2012-12-30 07:37:00
2:45 AM,19.4,17.6,93,29.64,2.0,ENE,4.6,-,0.00,Snow,Light Snow,60,2012-12-30 07:45:00
2:53 AM,19.9,17.1,89,29.68,2.5,ENE,3.5,-,0.00,Snow,Light Snow,60,2012-12-30 07:53:00
3:03 AM,19.4,17.6,93,29.66,3.0,ENE,3.5,-,0.00,Snow,Light Snow,70,2012-12-30 08:03:00
3:53 AM,19.0,16.0,88,29.70,3.0,ENE,5.8,-,0.00,Snow,Light Snow,60,2012-12-30 08:53:00
4:16 AM,19.4,15.8,86,29.67,3.0,ENE,3.5,-,0.00,Snow,Light Snow,70,2012-12-30 09:16:00
4:50 AM,17.6,15.8,93,29.69,7.0,NE,4.6,-,0.00,,Overcast,50,2012-12-30 09:50:00
4:53 AM,18.0,14.0,84,29.73,8.0,NE,4.6,-,0.00,,Overcast,40,2012-12-30 09:53:00
5:53 AM,19.9,12.0,71,29.75,10.0,North,10.4,-,N/A,,Overcast,10,2012-12-30 10:53:00
6:53 AM,19.0,10.9,71,29.79,10.0,NNW,6.9,-,N/A,,Overcast,330,2012-12-30 11:53:00
7:53 AM,17.1,12.9,84,29.82,10.0,Calm,Calm,-,N/A,,Overcast,0,2012-12-30 12:53:00
8:53 AM,18.0,14.0,84,29.85,10.0,Calm,Calm,-,N/A,,Overcast,0,2012-12-30 13:53:00
9:12 AM,19.4,15.8,86,29.82,1.0,Calm,Calm,-,N/A,,Overcast,0,2012-12-30 14:12:00
9:17 AM,19.4,12.2,74,29.83,5.0,NW,4.6,-,N/A,,Haze,320,2012-12-30 14:17:00
9:53 AM,19.9,10.9,68,29.88,10.0,NNW,12.7,-,N/A,,Overcast,330,2012-12-30 14:53:00
10:53 AM,21.0,10.9,65,29.89,7.0,NNW,10.4,-,N/A,,Mostly Cloudy,340,2012-12-30 15:53:00
11:53 AM,21.0,10.0,63,29.90,10.0,North,9.2,-,N/A,,Clear,10,2012-12-30 16:53:00
12:53 PM,23.0,9.0,55,29.90,10.0,NNE,3.5,-,N/A,,Clear,30,2012-12-30 17:53:00
1:53 PM,26.1,8.1,47,29.90,10.0,NNW,11.5,19.6,N/A,,Clear,330,2012-12-30 18:53:00
2:53 PM,25.0,6.1,45,29.94,10.0,NNW,12.7,24.2,N/A,,Clear,330,2012-12-30 19:53:00
3:53 PM,24.1,6.1,46,29.99,10.0,NNW,9.2,-,N/A,,Clear,340,2012-12-30 20:53:00
4:53 PM,21.0,3.9,48,30.02,10.0,NNW,9.2,-,N/A,,Clear,340,2012-12-30 21:53:00
5:53 PM,19.0,5.0,54,30.07,10.0,Calm,Calm,-,N/A,,Clear,0,2012-12-30 22:53:00
6:53 PM,19.0,3.9,52,30.11,10.0,WNW,10.4,-,N/A,,Clear,300,2012-12-30 23:53:00
7:53 PM,17.1,3.9,56,30.13,10.0,Variable,3.5,-,N/A,,Clear,0,2012-12-31 00:53:00
8:53 PM,16.0,3.9,59,30.15,10.0,NW,8.1,-,N/A,,Clear,320,2012-12-31 01:53:00
9:53 PM,17.1,6.1,62,30.16,10.0,NNW,6.9,-,N/A,,Partly Cloudy,340,2012-12-31 02:53:00
10:53 PM,16.0,7.0,68,30.17,10.0,SSW,5.8,-,N/A,,Overcast,210,2012-12-31 03:53:00
11:53 PM,10.9,6.1,81,30.17,10.0,Calm,Calm,-,N/A,,Overcast,0,2012-12-31 04:53:00